IK0TIX Weather Reports


time (UTC)temp
C
wind
direction
speed
KPH
gust
KPH
rain 1hr
cm
rain 24hr
cm
rain mn
cm
humidity
%
barometer
mb
20260507225948 18 41 6.4 14.5 0.00 0.71 0.00 71 1011.1
20260507225439 18 39 3.2 9.7 0.00 0.71 0.00 72 1011.2
20260507224937 18 30 3.2 6.4 0.00 0.71 0.00 73 1011.3
20260507224502 18 30 1.6 4.8 0.00 0.71 0.00 73 1011.3
20260507223949 18 30 1.6 9.7 0.00 0.71 0.00 73 1011.4
20260507223455 18 30 0.0 9.7 0.00 0.71 0.00 73 1011.3
20260507222946 18 30 3.2 9.7 0.00 0.71 0.00 74 1011.3
20260507222435 18 35 3.2 9.7 0.00 0.71 0.00 74 1011.3
20260507221943 18 336 3.2 6.4 0.00 0.71 0.00 76 1011.3
20260507221439 18 294 3.2 4.8 0.00 0.71 0.00 77 1011.3
20260507220931 18 290 0.0 3.2 0.00 0.71 0.00 78 1011.4
20260507220427 18 290 0.0 0.0 0.00 0.71 0.00 79 1011.4
20260507215939 18 290 0.0 0.0 0.00 0.99 0.15 79 1011.6
20260507215436 18 290 0.0 0.0 0.00 0.99 0.15 79 1011.6
20260507214951 18 290 0.0 0.0 0.00 0.99 0.15 79 1011.6
20260507214427 18 290 0.0 3.2 0.00 0.99 0.15 79 1011.6
20260507213935 18 290 0.0 3.2 0.00 0.99 0.15 79 1011.6
20260507213459 18 290 0.0 1.6 0.00 0.99 0.15 79 1011.6
20260507212947 18 290 0.0 1.6 0.00 0.99 0.15 80 1011.7
20260507212445 19 290 0.0 1.6 0.00 0.99 0.15 79 1011.8
20260507212004 19 290 0.0 1.6 0.00 0.99 0.15 79 1011.9
20260507211525 19 290 0.0 1.6 0.00 0.99 0.15 78 1012.0
20260507211442 19 290 0.0 1.6 0.00 0.99 0.15 78 1012.0
20260507210928 19 290 0.0 0.0 0.00 0.99 0.15 78 1011.9
20260507210450 19 290 0.0 1.6 0.00 0.99 0.15 78 1011.9
20260507205944 19 290 0.0 1.6 0.00 1.09 0.15 78 1011.9
20260507205441 19 290 0.0 0.0 0.00 1.09 0.15 77 1011.9
20260507204954 19 290 0.0 0.0 0.00 1.09 0.15 77 1011.9
20260507204451 19 290 0.0 0.0 0.00 1.09 0.15 77 1011.9
20260507203944 19 290 0.0 0.0 0.00 1.09 0.15 77 1012.0
20260507203441 20 290 0.0 0.0 0.00 1.09 0.15 77 1012.0
20260507202932 20 290 0.0 0.0 0.00 1.09 0.15 77 1012.0
20260507202431 20 290 0.0 0.0 0.00 1.09 0.15 77 1012.0
20260507202000 20 290 0.0 0.0 0.00 1.09 0.15 77 1012.1
20260507201442 20 290 0.0 0.0 0.00 1.09 0.15 77 1012.1
20260507200929 20 290 0.0 0.0 0.00 1.09 0.15 76 1012.1
20260507200453 20 290 0.0 0.0 0.00 1.09 0.15 76 1012.1
20260507195931 20 290 0.0 0.0 0.00 1.19 0.15 76 1012.1
20260507195432 20 290 0.0 0.0 0.00 1.19 0.15 76 1012.0
20260507194941 20 290 0.0 1.6 0.00 1.19 0.15 76 1012.0
20260507194453 20 290 0.0 1.6 0.00 1.19 0.15 76 1012.0
20260507193945 20 290 0.0 1.6 0.00 1.19 0.15 77 1012.0
20260507193444 20 290 0.0 0.0 0.00 1.19 0.15 76 1012.0
20260507193025 19 290 0.0 1.6 0.00 1.19 0.15 76 1012.0
20260507192943 19 290 0.0 1.6 0.00 1.19 0.15 76 1012.0
20260507192439 20 290 0.0 1.6 0.00 1.19 0.15 76 1012.0
20260507191959 20 290 0.0 1.6 0.00 1.19 0.15 76 1011.9
20260507191501 20 290 0.0 1.6 0.00 1.19 0.15 76 1011.9
20260507190952 19 290 0.0 3.2 0.00 1.19 0.15 76 1012.0
20260507190428 19 290 1.6 4.8 0.00 1.19 0.15 76 1012.0
20260507185938 19 290 0.0 4.8 0.00 1.19 0.15 75 1011.9
20260507185519 19 290 1.6 8.0 0.00 1.19 0.15 75 1011.9
20260507184943 19 290 1.6 8.0 0.00 1.19 0.15 74 1011.9
20260507184431 20 290 3.2 11.3 0.00 1.19 0.15 73 1011.9
20260507183940 20 292 4.8 11.3 0.00 1.19 0.15 72 1011.9
20260507183507 20 296 6.4 17.7 0.00 1.19 0.15 71 1011.9
20260507182941 20 302 8.0 17.7 0.00 1.19 0.15 70 1011.9
20260507182444 20 310 4.8 14.5 0.00 1.19 0.15 70 1011.9
20260507181948 20 304 3.2 8.0 0.00 1.19 0.15 70 1011.9
20260507181445 20 299 3.2 8.0 0.00 1.19 0.15 70 1011.9
20260507180952 20 300 3.2 8.0 0.00 1.19 0.15 70 1012.0
20260507180449 20 300 3.2 8.0 0.00 1.19 0.15 70 1012.0
20260507175946 21 300 3.2 6.4 0.00 1.19 0.15 70 1012.0
20260507175436 21 300 1.6 6.4 0.00 1.19 0.15 70 1012.0
20260507174942 21 302 1.6 11.3 0.00 1.19 0.15 69 1012.0
20260507174439 21 302 4.8 11.3 0.00 1.19 0.15 69 1012.0
20260507173930 21 303 3.2 16.1 0.00 1.19 0.15 68 1012.0
20260507173455 21 303 8.0 19.3 0.00 1.19 0.15 67 1012.0
20260507173004 21 292 8.0 19.3 0.00 1.19 0.15 67 1012.0
20260507172503 21 290 6.4 14.5 0.00 1.19 0.15 66 1012.0
20260507171933 22 290 6.4 12.9 0.00 1.19 0.15 65 1012.0
20260507171429 22 269 6.4 12.9 0.00 1.19 0.15 65 1012.0
20260507170940 22 290 4.8 14.5 0.00 1.19 0.15 64 1011.9
20260507170439 22 270 4.8 17.7 0.00 1.19 0.15 63 1012.0
20260507165930 23 266 4.8 17.7 0.00 1.19 0.15 63 1012.0
20260507165455 23 269 6.4 16.1 0.00 1.19 0.15 63 1012.0
20260507164936 23 263 8.0 16.1 0.00 1.19 0.15 62 1011.9
20260507164429 23 276 6.4 16.1 0.00 1.19 0.15 61 1011.9
20260507163942 23 259 6.4 16.1 0.00 1.19 0.15 61 1011.9
20260507163438 23 248 4.8 16.1 0.00 1.19 0.15 61 1011.8
20260507162946 23 261 6.4 17.7 0.00 1.19 0.15 61 1011.9
20260507162444 23 239 6.4 17.7 0.00 1.19 0.15 61 1011.8
20260507161931 23 242 4.8 16.1 0.00 1.19 0.15 61 1011.9
20260507161428 24 244 8.0 16.1 0.00 1.19 0.15 60 1011.9
20260507160951 24 251 4.8 16.1 0.00 1.19 0.15 60 1011.8
20260507160428 24 261 9.7 17.7 0.00 1.19 0.15 60 1011.9
20260507155958 24 233 6.4 17.7 0.00 1.19 0.15 59 1011.8
20260507155502 25 238 9.7 19.3 0.00 1.19 0.15 59 1011.7
20260507154953 25 260 9.7 24.1 0.00 1.19 0.15 58 1011.8
20260507154429 25 237 12.9 22.5 0.00 1.19 0.15 57 1011.7
20260507153941 26 233 8.0 22.5 0.00 1.19 0.15 57 1011.7
20260507153436 26 258 12.9 22.5 0.00 1.19 0.15 56 1011.8
20260507152947 26 263 8.0 24.1 0.00 1.19 0.15 56 1011.7
20260507152445 26 265 12.9 24.1 0.00 1.19 0.15 56 1011.7
20260507151928 26 273 9.7 17.7 0.00 1.19 0.15 55 1011.7
20260507151430 26 346 1.6 12.9 0.00 1.19 0.15 46 1011.7
20260507151009 26 345 4.8 12.9 0.00 1.19 0.15 45 1011.8
20260507150451 26 344 4.8 9.7 0.00 1.19 0.15 45 1011.9
20260507145953 26 344 3.2 9.7 0.00 1.19 0.15 45 1011.9
20260507145430 26 344 3.2 9.7 0.00 1.19 0.15 46 1011.8
20260507144942 26 344 4.8 8.0 0.00 1.19 0.15 45 1011.8
20260507144437 26 344 3.2 16.1 0.00 1.19 0.15 47 1011.9
20260507143947 25 344 6.4 16.1 0.00 1.19 0.15 47 1012.0
20260507143444 25 6 6.4 16.1 0.00 1.19 0.15 47 1012.0
20260507142933 26 15 8.0 16.1 0.00 1.19 0.15 46 1011.9
20260507142459 26 328 6.4 16.1 0.00 1.19 0.15 47 1011.9
20260507141950 26 328 3.2 9.7 0.00 1.19 0.15 48 1011.9
20260507141446 26 328 3.2 9.7 0.00 1.19 0.15 47 1012.1
20260507141025 26 329 6.4 9.7 0.00 1.19 0.15 46 1012.2
20260507140942 26 329 6.4 9.7 0.00 1.19 0.15 46 1012.2
20260507140435 26 327 3.2 14.5 0.00 1.19 0.15 47 1012.3
20260507140002 26 327 6.4 14.5 0.00 1.19 0.15 47 1012.4
20260507135439 26 328 6.4 14.5 0.00 1.19 0.15 47 1012.5
20260507134931 26 328 6.4 14.5 0.00 1.19 0.15 46 1012.5
20260507134457 25 328 0.0 12.9 0.00 1.19 0.15 48 1012.6
20260507133947 25 328 4.8 12.9 0.00 1.19 0.15 48 1012.8
20260507133445 25 329 1.6 17.7 0.00 1.19 0.15 49 1012.9
20260507132935 25 329 3.2 17.7 0.00 1.19 0.15 49 1013.0
20260507132434 25 329 8.0 17.7 0.00 1.19 0.15 48 1013.1
20260507131944 25 332 8.0 17.7 0.00 1.19 0.15 49 1013.0
20260507131440 25 1 3.2 12.9 0.00 1.19 0.15 49 1013.1
20260507130927 25 6 6.4 12.9 0.00 1.19 0.15 49 1013.2
20260507130456 25 6 4.8 12.9 0.00 1.19 0.15 49 1013.3
20260507125955 25 6 4.8 12.9 0.00 1.19 0.15 50 1013.3
20260507125453 25 11 4.8 12.9 0.00 1.19 0.15 52 1013.3
20260507124952 25 32 0.0 8.0 0.00 1.19 0.15 52 1013.3
20260507124456 25 32 1.6 8.0 0.00 1.19 0.15 52 1013.4
20260507123950 24 38 0.0 6.4 0.00 1.19 0.15 51 1013.3
20260507123445 24 38 1.6 8.0 0.00 1.19 0.15 52 1013.4
20260507122935 24 38 3.2 9.7 0.00 1.19 0.15 48 1013.4
20260507122431 25 39 4.8 9.7 0.00 1.19 0.15 49 1013.5
20260507121942 24 52 1.6 6.4 0.00 1.19 0.15 51 1013.6
20260507121430 24 52 1.6 6.4 0.00 1.19 0.15 52 1013.6
20260507120953 23 56 1.6 6.4 0.00 1.19 0.15 52 1013.7
20260507120450 24 57 3.2 9.7 0.00 1.19 0.15 51 1013.7
20260507115936 24 62 4.8 9.7 0.00 1.19 0.15 52 1013.7
20260507115502 24 11 1.6 8.0 0.00 1.19 0.15 54 1013.7
20260507114930 24 11 3.2 8.0 0.00 1.19 0.15 54 1013.6
20260507114455 23 19 0.0 9.7 0.00 1.19 0.15 56 1013.7
20260507113939 23 19 3.2 12.9 0.00 1.19 0.15 55 1013.8
20260507113505 23 50 3.2 9.7 0.00 1.19 0.15 56 1013.8
20260507112934 23 32 1.6 3.2 0.00 1.19 0.15 57 1013.8
20260507112432 23 32 1.6 3.2 0.00 1.19 0.15 57 1013.8
20260507111944 23 32 0.0 8.0 0.00 1.19 0.15 57 1014.0
20260507111439 23 32 1.6 6.4 0.00 1.19 0.15 58 1014.1
20260507110928 22 21 0.0 9.7 0.00 1.19 0.15 57 1014.1
20260507110455 23 21 3.2 11.3 0.00 1.19 0.15 59 1014.2
20260507105938 22 49 3.2 12.9 0.00 1.19 0.15 59 1014.2
20260507105457 22 11 1.6 12.9 0.00 1.19 0.15 59 1014.2
20260507104948 23 19 3.2 12.9 0.00 1.19 0.15 59 1014.3
20260507104446 22 337 0.0 8.0 0.00 1.19 0.15 59 1014.3
20260507103938 22 337 1.6 8.0 0.00 1.19 0.15 59 1014.4
20260507103427 22 33 3.2 11.3 0.00 1.19 0.15 59 1014.4
20260507102934 22 91 3.2 11.3 0.00 1.19 0.15 60 1014.4
20260507102451 22 32 3.2 11.3 0.00 1.19 0.15 60 1014.5
20260507102001 22 64 4.8 12.9 0.00 1.19 0.15 61 1014.5
20260507101436 22 89 4.8 12.9 0.00 1.19 0.15 62 1014.6
20260507100950 21 1 0.0 6.4 0.00 1.19 0.15 62 1014.7
20260507100443 21 1 1.6 8.0 0.00 1.19 0.15 62 1014.7
20260507095937 21 1 3.2 6.4 0.00 1.19 0.15 62 1014.7
20260507095435 21 353 1.6 8.0 0.00 1.19 0.15 62 1014.7
20260507094942 21 352 4.8 9.7 0.00 1.19 0.15 62 1014.7
20260507094441 21 1 3.2 8.0 0.00 1.19 0.15 64 1014.8
20260507093949 21 19 3.2 9.7 0.00 1.19 0.15 65 1014.9
20260507093444 21 20 1.6 9.7 0.00 1.19 0.15 65 1014.9
20260507092937 21 28 3.2 8.0 0.00 1.19 0.15 65 1014.9
20260507092434 21 32 3.2 6.4 0.00 1.19 0.15 65 1014.9
20260507091941 21 32 1.6 8.0 0.00 1.19 0.15 66 1014.7
20260507091438 21 33 1.6 9.7 0.00 1.19 0.15 65 1014.7
20260507090926 21 34 0.0 8.0 0.00 1.19 0.15 66 1014.7
20260507090448 20 34 0.0 9.7 0.00 1.19 0.15 67 1014.7
20260507085942 20 33 4.8 9.7 0.00 1.19 0.15 66 1014.6
20260507085439 20 34 1.6 12.9 0.00 1.19 0.15 68 1014.6
20260507084948 20 31 3.2 12.9 0.00 1.19 0.15 67 1014.6
20260507084447 20 19 4.8 9.7 0.00 1.19 0.15 66 1014.7
20260507083939 20 56 1.6 8.0 0.00 1.19 0.15 68 1014.8
20260507083503 20 56 3.2 9.7 0.00 1.19 0.15 68 1014.7
20260507083000 20 57 1.6 9.7 0.00 1.19 0.15 70 1014.8
20260507082433 20 31 1.6 8.0 0.00 1.19 0.15 70 1014.8
20260507081945 20 29 4.8 8.0 0.00 1.19 0.15 70 1014.7
20260507081442 20 37 1.6 6.4 0.00 1.19 0.15 71 1014.8
20260507080935 20 37 1.6 8.0 0.00 1.19 0.15 71 1014.8
20260507080433 20 37 1.6 8.0 0.00 1.19 0.15 71 1014.9
20260507075945 20 38 1.6 4.8 0.00 1.19 0.15 71 1015.0
20260507075444 20 38 0.0 1.6 0.00 1.19 0.15 72 1015.0
20260507074933 20 42 0.0 0.0 0.00 1.19 0.15 73 1014.9
20260507074457 20 43 0.0 0.0 0.00 1.19 0.15 75 1014.9
20260507073942 20 43 0.0 0.0 0.00 1.19 0.15 75 1014.9
20260507073438 19 43 0.0 0.0 0.00 1.19 0.15 76 1014.9
20260507072951 19 43 0.0 0.0 0.00 1.19 0.15 77 1014.9
20260507072443 19 52 0.0 0.0 0.00 1.19 0.15 77 1014.9
20260507071934 18 52 0.0 0.0 0.00 1.19 0.15 79 1014.9
20260507071430 18 52 0.0 0.0 0.00 1.19 0.15 80 1014.9
20260507070941 18 52 0.0 0.0 0.00 1.19 0.15 81 1015.1
20260507070435 18 52 0.0 0.0 0.00 1.19 0.15 81 1015.1
20260507065955 17 52 0.0 0.0 0.00 1.19 0.15 82 1015.1
20260507065441 17 52 0.0 0.0 0.00 1.19 0.15 82 1015.1
20260507064931 17 52 0.0 0.0 0.00 1.19 0.15 83 1015.1
20260507064427 17 52 0.0 4.8 0.00 1.19 0.15 83 1015.0
20260507063939 17 52 1.6 4.8 0.00 1.19 0.15 83 1015.0
20260507063436 17 52 0.0 4.8 0.00 1.19 0.15 84 1014.9
20260507062949 16 52 1.6 4.8 0.00 1.19 0.15 84 1014.9
20260507062445 16 53 1.6 4.8 0.00 1.19 0.15 85 1014.9
20260507061936 16 53 0.0 0.0 0.00 1.19 0.15 86 1014.7
20260507061433 16 53 0.0 6.4 0.00 1.19 0.15 86 1014.7
20260507060926 16 53 1.6 6.4 0.00 1.19 0.15 86 1014.7
20260507060446 16 54 3.2 6.4 0.00 1.19 0.15 86 1014.7
20260507055956 16 61 0.0 6.4 0.00 1.30 0.15 87 1014.6
20260507055440 16 62 3.2 6.4 0.00 1.30 0.15 87 1014.6
20260507054934 16 68 1.6 4.8 0.00 1.30 0.15 87 1014.6
20260507054432 15 69 1.6 3.2 0.00 1.30 0.15 88 1014.6
20260507053943 15 69 0.0 4.8 0.00 1.30 0.15 89 1014.7
20260507053441 15 69 0.0 4.8 0.00 1.30 0.15 90 1014.7
20260507052944 15 69 1.6 4.8 0.00 1.30 0.15 90 1014.7
20260507052441 15 69 1.6 6.4 0.00 1.30 0.15 90 1014.6
20260507051949 15 69 1.6 6.4 0.00 1.30 0.15 90 1014.5
20260507051442 15 69 1.6 8.0 0.00 1.30 0.15 90 1014.6
20260507050935 15 69 3.2 8.0 0.00 1.30 0.15 90 1014.6
20260507050431 14 69 4.8 8.0 0.00 1.30 0.15 90 1014.6
20260507045946 14 69 3.2 6.4 0.00 1.40 0.15 90 1014.5
20260507045443 14 69 3.2 6.4 0.00 1.40 0.15 90 1014.5
20260507044937 14 69 1.6 6.4 0.00 1.40 0.15 90 1014.5
20260507044435 14 69 1.6 8.0 0.00 1.40 0.15 90 1014.4
20260507044005 14 69 4.8 8.0 0.00 1.40 0.15 90 1014.3
20260507043441 14 69 0.0 9.7 0.00 1.40 0.15 90 1014.3
20260507042933 14 68 4.8 9.7 0.00 1.40 0.15 90 1014.4
20260507042432 14 67 4.8 9.7 0.00 1.40 0.15 90 1014.5
20260507041945 14 64 3.2 8.0 0.00 1.40 0.15 90 1014.4
20260507041443 14 64 3.2 12.9 0.00 1.40 0.15 90 1014.4
20260507040936 14 77 6.4 12.9 0.00 1.40 0.15 90 1014.3
20260507040434 14 80 3.2 9.7 0.00 1.40 0.15 90 1014.3
20260507035948 14 83 3.2 9.7 0.00 1.40 0.15 90 1014.3
20260507035441 14 84 4.8 9.7 0.00 1.40 0.15 90 1014.3
20260507034955 14 85 4.8 9.7 0.00 1.40 0.15 91 1014.3
20260507034430 14 89 4.8 9.7 0.00 1.40 0.15 91 1014.3
20260507033943 14 90 3.2 8.0 0.00 1.40 0.15 91 1014.3
20260507033440 14 90 3.2 9.7 0.00 1.40 0.15 91 1014.4
20260507032933 14 90 1.6 11.3 0.00 1.40 0.15 91 1014.4
20260507032432 14 90 3.2 11.3 0.00 1.40 0.15 91 1014.4
20260507031947 14 90 4.8 9.7 0.00 1.40 0.15 91 1014.4
20260507031445 14 90 1.6 6.4 0.00 1.40 0.15 91 1014.5
20260507030935 14 90 3.2 12.9 0.00 1.40 0.15 91 1014.4
20260507030459 14 91 3.2 12.9 0.00 1.40 0.15 91 1014.3
20260507025929 14 96 4.8 11.3 0.00 1.40 0.15 91 1014.3
20260507025428 14 95 3.2 9.7 0.00 1.40 0.15 91 1014.3
20260507024943 14 59 3.2 9.7 0.10 1.40 0.15 91 1014.3
20260507024509 14 36 1.6 8.0 0.20 1.40 0.15 91 1014.3
20260507023938 15 33 1.6 9.7 0.20 1.40 0.15 91 1014.4
20260507023436 15 78 3.2 14.5 0.30 1.40 0.15 91 1014.3
20260507022948 15 80 6.4 14.5 0.30 1.40 0.15 91 1014.4
20260507022442 15 83 4.8 16.1 0.41 1.40 0.15 91 1014.4
20260507021927 15 75 6.4 16.1 0.41 1.40 0.15 90 1014.4
20260507021427 15 82 9.7 16.1 0.41 1.40 0.15 91 1014.3
20260507020939 15 79 6.4 14.5 0.41 1.40 0.15 91 1014.4
20260507020504 15 77 4.8 12.9 0.41 1.40 0.15 91 1014.4
20260507015933 15 77 6.4 9.7 0.41 1.40 0.15 91 1014.5
20260507015431 15 79 1.6 6.4 0.41 1.40 0.15 91 1014.5
20260507014937 15 79 1.6 8.0 0.30 1.30 0.13 91 1014.4
20260507014432 15 79 1.6 9.7 0.20 1.19 0.10 90 1014.4
20260507013945 15 79 4.8 9.7 0.20 1.19 0.10 90 1014.5
20260507013440 15 80 1.6 4.8 0.10 1.09 0.08 90 1014.4
20260507012951 15 80 0.0 9.7 0.10 1.09 0.08 90 1014.4
20260507012448 15 80 0.0 9.7 0.00 0.99 0.05 90 1014.3
20260507012001 15 80 6.4 14.5 0.00 0.99 0.05 89 1014.3
20260507011435 15 81 8.0 14.5 0.00 0.99 0.05 89 1014.2
20260507010948 15 86 6.4 12.9 0.00 0.99 0.05 89 1014.3
20260507010446 15 91 4.8 6.4 0.10 0.99 0.05 89 1014.3
20260507005935 15 91 1.6 6.4 0.10 0.99 0.05 89 1014.4
20260507005432 15 91 1.6 4.8 0.20 0.99 0.05 89 1014.4
20260507004941 15 91 1.6 9.7 0.20 0.99 0.05 89 1014.4
20260507004438 15 91 1.6 9.7 0.30 0.99 0.05 89 1014.4
20260507003929 15 91 1.6 11.3 0.30 0.99 0.05 89 1014.4
20260507003508 15 91 4.8 11.3 0.30 0.99 0.05 88 1014.5
20260507002939 15 92 1.6 12.9 0.30 0.99 0.05 88 1014.5
20260507002502 15 91 6.4 12.9 0.30 0.99 0.05 87 1014.4
20260507001959 15 88 4.8 12.9 0.30 0.99 0.05 87 1014.5
20260507001431 15 81 6.4 12.9 0.30 0.99 0.05 87 1014.5
20260507001003 15 113 4.8 12.9 0.30 0.99 0.05 86 1014.4
20260507000436 15 127 4.8 14.5 0.20 0.89 0.05 87 1014.5
20260507000006 16 145 3.2 14.5 0.20 0.89 0.05 86 1014.5
20260506235442 16 153 4.8 16.1 0.10 0.79 0.03 86 1014.6
20260506234959 16 151 6.4 17.7 0.10 0.79 0.03 85 1014.6
20260506234436 16 156 4.8 17.7 0.00 0.71 0.00 86 1014.6
20260506233929 16 170 6.4 25.7 0.00 0.71 0.00 86 1014.7
20260506233431 16 163 8.0 35.4 0.00 0.71 0.00 85 1014.7
20260506232941 16 165 9.7 35.4 0.00 0.71 0.00 85 1014.6
20260506232437 16 179 8.0 29.0 0.00 0.71 0.00 84 1014.6
20260506231947 16 165 14.5 29.0 0.00 0.71 0.00 84 1014.6
20260506231443 16 186 12.9 24.1 0.00 0.71 0.00 84 1014.5
20260506230933 16 190 9.7 27.4 0.00 0.71 0.00 84 1014.4
20260506230519 16 131 11.3 27.4 0.00 0.71 0.00 84 1014.4